When you browse on this site, cookies collect data to enhance your experience and personalize the content and advertising you see.
Visit our Privacy Policy to learn more. By continuing to use the site, you agree to this use of cookies and data.
  • In Hungary
  • List of Countries
  • For 7 days
  • Water Temperature
  • Weather Map
  • News
  • Weather Widgets
  • user-avatar
    Login

    Hourly Weather Balkovskiy

    Today, 23 October, Wednesday

    Time Temperature Precipitation Wind Pressure Humidity
    00:00 +10°C° 0 mm 2 mps 743 mmHg 74%
    01:00 +10°C° 0 mm 1 mps 742 mmHg 77%
    02:00 +10°C° 0 mm 1 mps 742 mmHg 80%
    03:00 +10°C° 0 mm 1 mps 742 mmHg 84%
    04:00 +9°C° 0 mm 1 mps 743 mmHg 85%
    05:00 +9°C° 0 mm 1 mps 743 mmHg 87%
    06:00 +9°C° 0 mm 1 mps 743 mmHg 88%
    07:00 +10°C° 0 mm 1 mps 743 mmHg 83%
    08:00 +10°C° 0 mm 2 mps 743 mmHg 78%
    09:00 +13°C° 0 mm 2 mps 744 mmHg 71%
    10:00 +14°C° 0 mm 2 mps 743 mmHg 63%
    11:00 +16°C° 0 mm 3 mps 743 mmHg 56%
    12:00 +17°C° 0 mm 3 mps 743 mmHg 48%
    13:00 +18°C° 0 mm 3 mps 743 mmHg 46%
    14:00 +18°C° 0 mm 3 mps 742 mmHg 43%
    15:00 +19°C° 0 mm 3 mps 742 mmHg 40%
    16:00 +17°C° 0 mm 2 mps 742 mmHg 44%
    17:00 +16°C° 0 mm 2 mps 743 mmHg 48%
    18:00 +14°C° 0 mm 2 mps 743 mmHg 52%
    19:00 +14°C° 0 mm 2 mps 743 mmHg 55%
    20:00 +13°C° 0 mm 2 mps 743 mmHg 57%
    21:00 +12°C° 0 mm 2 mps 743 mmHg 60%
    22:00 +12°C° 0 mm 2 mps 743 mmHg 62%
    23:00 +11°C° 0 mm 1 mps 743 mmHg 63%

    Tomorrow, 24 October, Thursday

    Time Temperature Precipitation Wind Pressure Humidity
    00:00 +11°C° 0 mm 1 mps 743 mmHg 65%
    01:00 +11°C° 0 mm 1 mps 742 mmHg 66%
    02:00 +10°C° 0 mm 1 mps 742 mmHg 67%
    03:00 +10°C° 0 mm 1 mps 742 mmHg 69%
    04:00 +10°C° 0 mm 1 mps 742 mmHg 71%
    05:00 +9°C° 0 mm 1 mps 742 mmHg 72%
    06:00 +9°C° 0 mm 1 mps 742 mmHg 74%
    07:00 +9°C° 0 mm 2 mps 742 mmHg 71%
    08:00 +12°C° 0 mm 2 mps 742 mmHg 68%
    09:00 +13°C° 0 mm 2 mps 743 mmHg 65%
    10:00 +14°C° 0 mm 3 mps 743 mmHg 58%
    11:00 +16°C° 0 mm 3 mps 742 mmHg 52%
    12:00 +18°C° 0 mm 3 mps 742 mmHg 45%
    13:00 +18°C° 0 mm 3 mps 742 mmHg 44%
    14:00 +19°C° 0 mm 3 mps 742 mmHg 42%
    15:00 +19°C° 0 mm 4 mps 742 mmHg 40%
    16:00 +18°C° 0 mm 3 mps 742 mmHg 43%
    17:00 +16°C° 0 mm 3 mps 742 mmHg 47%
    18:00 +14°C° 0 mm 3 mps 742 mmHg 50%
    19:00 +13°C° 0 mm 3 mps 742 mmHg 51%
    20:00 +12°C° 0 mm 3 mps 742 mmHg 53%
    21:00 +13°C° 0 mm 2 mps 742 mmHg 54%
    22:00 +12°C° 0 mm 2 mps 742 mmHg 56%
    23:00 +12°C° 0 mm 2 mps 741 mmHg 59%

    Day after tomorrow, 25 October, Friday

    Time Temperature Precipitation Wind Pressure Humidity
    00:00 +12°C° 0 mm 2 mps 741 mmHg 61%
    01:00 +10°C° 0 mm 2 mps 741 mmHg 68%
    02:00 +10°C° 0 mm 2 mps 741 mmHg 75%
    03:00 +10°C° 0 mm 2 mps 740 mmHg 82%
    04:00 +9°C° 0 mm 2 mps 740 mmHg 85%
    05:00 +9°C° 0 mm 2 mps 740 mmHg 88%
    06:00 +9°C° 0 mm 2 mps 740 mmHg 92%
    07:00 +10°C° 0 mm 3 mps 741 mmHg 88%
    08:00 +11°C° 0 mm 3 mps 741 mmHg 84%
    09:00 +12°C° 0 mm 3 mps 741 mmHg 79%
    10:00 +14°C° 0 mm 4 mps 741 mmHg 73%
    11:00 +15°C° 0 mm 4 mps 741 mmHg 66%
    12:00 +17°C° 0 mm 4 mps 741 mmHg 60%
    13:00 +18°C° 0 mm 4 mps 741 mmHg 57%
    14:00 +18°C° 0 mm 4 mps 740 mmHg 55%
    15:00 +19°C° 0 mm 4 mps 740 mmHg 53%
    16:00 +17°C° 0 mm 4 mps 740 mmHg 56%
    17:00 +16°C° 0 mm 3 mps 740 mmHg 59%
    18:00 +14°C° 0 mm 3 mps 740 mmHg 62%
    19:00 +13°C° 0 mm 3 mps 740 mmHg 65%
    20:00 +13°C° 0 mm 3 mps 740 mmHg 67%
    21:00 +12°C° 0 mm 3 mps 740 mmHg 69%
    22:00 +12°C° 0 mm 3 mps 740 mmHg 72%
    23:00 +11°C° 0 mm 3 mps 740 mmHg 75%

    26 October, Saturday

    Time Temperature Precipitation Wind Pressure Humidity
    00:00 +10°C° 0 mm 2 mps 740 mmHg 78%
    01:00 +10°C° 0 mm 2 mps 740 mmHg 81%
    02:00 +10°C° 0 mm 2 mps 740 mmHg 84%
    03:00 +10°C° 0 mm 2 mps 740 mmHg 87%
    04:00 +9°C° 0 mm 2 mps 740 mmHg 89%
    05:00 +9°C° 0 mm 2 mps 741 mmHg 91%
    06:00 +9°C° 0 mm 2 mps 741 mmHg 93%
    07:00 +10°C° 0 mm 2 mps 741 mmHg 89%
    08:00 +12°C° 0 mm 2 mps 741 mmHg 85%
    09:00 +13°C° 0 mm 2 mps 741 mmHg 81%
    10:00 +13°C° 0 mm 3 mps 741 mmHg 79%
    11:00 +13°C° 0 mm 3 mps 741 mmHg 77%
    12:00 +14°C° 0 mm 3 mps 741 mmHg 75%
    13:00 +16°C° 0 mm 3 mps 741 mmHg 73%
    14:00 +16°C° 0 mm 3 mps 741 mmHg 71%
    15:00 +17°C° 0 mm 3 mps 741 mmHg 68%
    16:00 +16°C° 0 mm 3 mps 741 mmHg 71%
    17:00 +16°C° 0 mm 2 mps 741 mmHg 73%
    18:00 +16°C° 0 mm 1 mps 742 mmHg 75%
    19:00 +15°C° 0 mm 1 mps 742 mmHg 76%
    20:00 +15°C° 0 mm 1 mps 742 mmHg 78%
    21:00 +13°C° 0 mm 0 mps 742 mmHg 79%
    22:00 +14°C° 0 mm 1 mps 742 mmHg 82%
    23:00 +13°C° 0 mm 1 mps 741 mmHg 85%

    27 October, Sunday

    Time Temperature Precipitation Wind Pressure Humidity
    00:00 +12°C° 0 mm 1 mps 741 mmHg 89%
    01:00 +12°C° 0 mm 1 mps 741 mmHg 90%
    02:00 +12°C° 0 mm 1 mps 741 mmHg 91%
    03:00 +11°C° 0 mm 1 mps 741 mmHg 92%
    04:00 +11°C° 0 mm 1 mps 741 mmHg 93%
    05:00 +11°C° 0 mm 1 mps 741 mmHg 94%
    06:00 +10°C° 0 mm 1 mps 741 mmHg 95%
    07:00 +12°C° 0 mm 1 mps 741 mmHg 90%
    08:00 +13°C° 0 mm 1 mps 742 mmHg 86%
    09:00 +14°C° 0 mm 1 mps 742 mmHg 82%
    10:00 +15°C° 0 mm 1 mps 742 mmHg 75%
    11:00 +17°C° 0 mm 2 mps 742 mmHg 69%
    12:00 +18°C° 0 mm 2 mps 741 mmHg 63%
    13:00 +19°C° 0 mm 2 mps 741 mmHg 60%
    14:00 +19°C° 0 mm 2 mps 741 mmHg 58%
    15:00 +20°C° 0 mm 2 mps 740 mmHg 56%
    16:00 +18°C° 0 mm 2 mps 740 mmHg 61%
    17:00 +17°C° 0 mm 2 mps 740 mmHg 67%
    18:00 +16°C° 0 mm 1 mps 740 mmHg 72%
    19:00 +15°C° 0 mm 1 mps 740 mmHg 75%
    20:00 +15°C° 0 mm 1 mps 740 mmHg 78%
    21:00 +14°C° 0 mm 1 mps 740 mmHg 81%
    22:00 +14°C° 0 mm 1 mps 740 mmHg 81%
    23:00 +14°C° 0 mm 1 mps 740 mmHg 81%

    28 October, Monday

    Time Temperature Precipitation Wind Pressure Humidity
    00:00 +13°C° 0 mm 1 mps 739 mmHg 82%
    01:00 +13°C° 0 mm 1 mps 739 mmHg 81%
    02:00 +13°C° 0 mm 1 mps 739 mmHg 81%
    03:00 +12°C° 0 mm 0 mps 739 mmHg 80%
    04:00 +12°C° 0 mm 0 mps 739 mmHg 80%
    05:00 +11°C° 0 mm 0 mps 739 mmHg 81%
    06:00 +11°C° 0 mm 0 mps 738 mmHg 81%
    07:00 +13°C° 0 mm 1 mps 738 mmHg 76%
    08:00 +14°C° 0 mm 1 mps 738 mmHg 71%
    09:00 +15°C° 0 mm 1 mps 738 mmHg 66%
    10:00 +16°C° 0 mm 2 mps 738 mmHg 61%
    11:00 +18°C° 0 mm 2 mps 738 mmHg 56%
    12:00 +19°C° 0 mm 2 mps 738 mmHg 51%
    13:00 +19°C° 0 mm 2 mps 737 mmHg 49%
    14:00 +19°C° 0 mm 2 mps 737 mmHg 47%
    15:00 +20°C° 0 mm 2 mps 737 mmHg 45%
    16:00 +18°C° 0 mm 2 mps 737 mmHg 48%
    17:00 +17°C° 0 mm 2 mps 737 mmHg 51%
    18:00 +16°C° 0 mm 2 mps 737 mmHg 53%
    19:00 +16°C° 0 mm 2 mps 737 mmHg 56%
    20:00 +15°C° 0 mm 1 mps 737 mmHg 58%
    21:00 +15°C° 0 mm 1 mps 737 mmHg 60%
    22:00 +14°C° 0 mm 1 mps 736 mmHg 61%
    23:00 +14°C° 0 mm 1 mps 736 mmHg 63%

    29 October, Tuesday

    Time Temperature Precipitation Wind Pressure Humidity
    00:00 +13°C° 0 mm 0 mps 736 mmHg 64%
    01:00 +13°C° 0 mm 0 mps 736 mmHg 65%
    02:00 +13°C° 0 mm 0 mps 736 mmHg 66%
    03:00 +12°C° 0 mm 0 mps 736 mmHg 67%
    04:00 +12°C° 0 mm 0 mps 736 mmHg 68%
    05:00 +12°C° 0 mm 0 mps 736 mmHg 69%
    06:00 +12°C° 0 mm 0 mps 735 mmHg 70%
    07:00 +13°C° 0 mm 0 mps 736 mmHg 66%
    08:00 +14°C° 0 mm 0 mps 736 mmHg 63%
    09:00 +16°C° 0 mm 1 mps 736 mmHg 59%
    10:00 +18°C° 0 mm 1 mps 736 mmHg 55%
    11:00 +19°C° 0 mm 1 mps 736 mmHg 51%
    12:00 +21°C° 0 mm 1 mps 736 mmHg 47%
    13:00 +21°C° 0 mm 1 mps 736 mmHg 45%
    14:00 +20°C° 0 mm 2 mps 736 mmHg 43%
    15:00 +21°C° 0 mm 2 mps 736 mmHg 42%
    16:00 +19°C° 0 mm 2 mps 736 mmHg 46%
    17:00 +19°C° 0 mm 1 mps 736 mmHg 50%
    18:00 +18°C° 0 mm 1 mps 736 mmHg 54%
    19:00 +16°C° 0 mm 1 mps 736 mmHg 56%
    20:00 +16°C° 0 mm 1 mps 736 mmHg 57%
    21:00 +15°C° 0 mm 1 mps 736 mmHg 59%
    22:00 +15°C° 0 mm 2 mps 736 mmHg 60%
    23:00 +15°C° 0 mm 2 mps 736 mmHg 61%
    Show more